Weather History for Hayward, WI

Change the Weather History Date:

Friday, February 8, 2013

  Actual Average Record
Temperature  
Mean Temperature 12 °F -  
Max Temperature 25 °F 36 °F 46 °F (1999)
Min Temperature -2 °F 5 °F -18 °F (2014)
Degree Days  
Heating Degree Days 52    
Moisture  
Dew Point 5 °F    
Average Humidity 76    
Maximum Humidity 96    
Minimum Humidity 55    
Precipitation  
Precipitation 0.00 in - - ()
Sea Level Pressure  
Sea Level Pressure 30.36 in    
Wind  
Wind Speed 0 mph (East)    
Max Wind Speed 8 mph    
Max Gust Speed -    
Visibility 10 miles    
Events      
Averages and records for this station are not official NWS values.
T = Trace of Precipitation, MM = Missing Value Source: NWS Daily Summary

Daily Weather History Graph

Daily Weather History Graph

Search for Another Location

Airport:

Trip Planner

Search our weather history database for the weather conditions in past years. The results will help you decide how hot, cold, wet, or windy it might be!

Date:

Astronomy

Feb. 08, 2013 Rise Set
Actual Time 7:18 AM CST 5:22 PM CST
Civil Twilight 6:47 AM CST 5:53 PM CST
Nautical Twilight 6:11 AM CST 6:28 PM CST
Astronomical Twilight 5:37 AM CST 7:03 PM CST
Moon 5:50 AM CST (2/8) 3:54 PM CST (2/8)
Length of Visible Light 11h 06m
Length of Day
10h 03m
Waning Crescent, 3% of the Moon is Illuminated
Feb 8
Waning Crescent
Feb 10
New
Feb 17
First Quarter
Feb 25
Full
Mar 4
Last Quarter

Hourly Weather History & Observations

Time (CST) Temp. Windchill Dew Point Humidity Pressure Visibility Wind Dir Wind Speed Gust Speed Precip Events Conditions
12:53 AM 10.0 °F - 6.1 °F 84% 30.34 in 10.0 mi Calm Calm - N/A   Overcast
1:53 AM 7.0 °F - 3.9 °F 87% 30.34 in 9.0 mi Calm Calm - N/A   Overcast
2:02 AM 8.6 °F - 3.2 °F 79% 30.27 in 9.0 mi Calm Calm - N/A   Overcast
2:13 AM 6.8 °F - 3.2 °F 85% 30.27 in 10.0 mi Calm Calm - N/A   Overcast
2:44 AM 3.2 °F - -0.4 °F 85% 30.27 in 10.0 mi Calm Calm - N/A   Overcast
2:53 AM 3.0 °F - -0.9 °F 84% 30.35 in 9.0 mi Calm Calm - N/A   Overcast
3:53 AM 6.1 °F - 3.0 °F 87% 30.35 in 7.0 mi Calm Calm - 0.00 in   Overcast
4:53 AM 9.0 °F - 5.0 °F 84% 30.36 in 10.0 mi Calm Calm - 0.00 in   Overcast
5:53 AM 9.0 °F - 5.0 °F 84% 30.38 in 10.0 mi Calm Calm - N/A   Overcast
6:23 AM 6.8 °F - 1.4 °F 79% 30.31 in 10.0 mi Calm Calm - N/A   Partly Cloudy
6:53 AM 1.9 °F - -2.9 °F 80% 30.40 in 10.0 mi Calm Calm - N/A   Clear
7:53 AM 1.0 °F - -4.0 °F 79% 30.42 in 10.0 mi Calm Calm - N/A   Clear
8:53 AM 3.9 °F - 3.0 °F 96% 30.43 in 10.0 mi Calm Calm - N/A   Clear
9:53 AM 18.0 °F - 10.9 °F 74% 30.43 in 10.0 mi Calm Calm - N/A   Clear
10:53 AM 19.9 °F 12.1 °F 10.9 °F 68% 30.43 in 10.0 mi NE 5.8 mph - N/A   Clear
11:53 AM 21.9 °F - 10.9 °F 63% 30.43 in 10.0 mi Calm Calm - N/A   Scattered Clouds
12:01 PM 21.2 °F 11.7 °F 10.4 °F 63% 30.35 in 10.0 mi East 8.1 mph - N/A   Mostly Cloudy
12:16 PM 21.2 °F - 10.4 °F 63% 30.34 in 10.0 mi Calm Calm - N/A   Scattered Clouds
12:53 PM 21.9 °F 14.5 °F 10.9 °F 63% 30.41 in 10.0 mi ESE 5.8 mph - N/A   Clear
1:53 PM 25.0 °F - 10.9 °F 55% 30.40 in 10.0 mi Calm Calm - N/A   Clear
2:53 PM 25.0 °F - 10.9 °F 55% 30.38 in 10.0 mi Calm Calm - N/A   Clear
3:53 PM 25.0 °F - 10.9 °F 55% 30.36 in 10.0 mi Calm Calm - N/A   Clear
4:53 PM 23.0 °F - 10.0 °F 58% 30.35 in 10.0 mi Calm Calm - N/A   Clear
5:53 PM 18.0 °F - 10.0 °F 71% 30.35 in 10.0 mi Calm Calm - N/A   Clear
6:53 PM 10.9 °F - 7.0 °F 84% 30.38 in 10.0 mi Calm Calm - N/A   Clear
7:53 PM 8.1 °F - 3.0 °F 80% 30.37 in 10.0 mi Calm Calm - N/A   Clear
8:53 PM 5.0 °F - -0.9 °F 76% 30.36 in 10.0 mi Calm Calm - N/A   Clear
9:53 PM 1.9 °F - -2.0 °F 83% 30.35 in 10.0 mi Calm Calm - N/A   Clear
10:53 PM -0.0 °F - -5.1 °F 79% 30.33 in 10.0 mi Calm Calm - N/A   Clear
11:53 PM -2.0 °F - -6.0 °F 83% 30.34 in 10.0 mi Calm Calm - N/A   Clear